Погода в Сахль-Хашише

Египет     27°14′53″N   33°49′17″E
темп.,
°C
ветер,
м/с
пор.,
м/с
влажн.,
%
обл.,
%
осадки,
мм/ч
давл.,
гПа
погр.,
м
28 июля, ср
ср2823:00+33сз1016221 0.0 1004342
02:00+32сз7132415 0.0 1003227
05:00+30сз7123210 0.0 1004208
08:00+34ссз10122274 0.0 1004760
11:00+38ссз1011199 0.0 10041169
14:00+39с1111190 0.0 10011105
17:00+38ссз1012175 0.0 1001979
20:00+34сз610190 0.0 1003104
29 июля, чт
чт2923:00+34зсз814170 0.0 1003225
02:00+31сз814260 0.0 1003253
05:00+30сз915241 0.0 1003305
08:00+35сз1113154 0.0 1004898
11:00+38ссз1011165 0.0 10031522
14:00+38с1111181 0.0 10011177
17:00+35с912230 0.0 1001711
20:00+32зсз45175 0.0 100237
30 июля, пт
пт3023:00+33з5717100 0.0 100259
02:00+32зсз61123100 0.0 1002137
05:00+30сз61131100 0.0 1002162
08:00+34ссз7924100 0.0 1003791
11:00+36с9927100 0.0 1003895
14:00+37с911235 0.0 1001597
17:00+35с79274 0.0 1000294
20:00+31з22235 0.0 100211
31 июля, сб
сб3123:00+33з34185 0.0 100214
02:00+30ссв11253 0.0 100112
05:00+26св11495 0.0 100311
08:00+33ссв22311 0.0 1004309
11:00+35ссв54310 0.0 1003605
14:00+36всв45295 0.0 1002489
17:00+36юв43270 0.0 1001318
20:00+32ю33290 0.0 100211
1 августа, вс
вс123:00+30св11314 0.0 100311
02:00+28ссв22594 0.0 100311
05:00+27сз33705 0.0 100416
08:00+31с22445 0.0 1005354
11:00+35в53370 0.0 1005685
14:00+35вюв65365 0.0 1003529
17:00+34юв66385 0.0 1002345
20:00+30ююв46410 0.0 100360